Observations

BIA Manual Entry


Date Temp Humidity Rainfall Dew Point Wind Direction Wind Speed Wind Pressure Condition Visibility
2025-04-05 17:01:44 29 81 0.0 26 350 15.2 1007 Partly Cloudy (Day) 15 KM
2025-04-05 15:59:53 30 80 0.0 26 350 17.1 1007 Partly Cloudy (Day) 20 KM
2025-04-05 14:58:29 31 78 0.0 26 330 19.0 1008 Partly Cloudy (Day) 20 KM
2025-04-05 13:58:58 31 69 0.0 25 330 19.0 1009 Partly Cloudy (Day) 20 KM
2025-04-05 13:00:56 31 71 .0.00 25 310 13.3 1010 Partly Cloudy (Day) 20KM
2025-04-05 12:02:24 30 72 0.00 25 330 13.3 1011 Partly Cloudy (Day) 10KM
2025-04-05 10:58:22 31 71 25 300 5.7 1011 Partly Cloudy (Day) 20 KM
2025-04-05 09:59:42 31 67 24 200 3.8 1012 Partly Cloudy (Day) 20 KM
2025-04-05 08:59:42 29 78 25 160 3.8 1012 Partly Cloudy (Day) 20 KM
2025-04-05 08:01:57 27 89 25 220 5.7 1011 Partly Cloudy (Day) 20 km
2025-04-05 06:58:11 26 94 25 210 3.8 1010 Partly Cloudy (Day) 10 km
2025-04-05 05:58:34 25 94 24 180 1.9 1009 Partly Cloudy (Day) 10 km
2025-04-05 04:59:33 25 93 24 190 3.8 1009 Partly Cloudy (Night) 10 km
2025-04-05 03:58:13 26 89 24 200 5.7 1009 Partly Cloudy (Night) 10 km
2025-04-05 02:57:49 25 91 24 160 3.8 1010 Partly Cloudy (Night) 10 km
2025-04-05 02:01:40 26 89 0.0 24 210 4 1010 Cloudy 10 km
2025-04-05 00:59:11 26 92 0.0 24 170 2 1011 Partly Cloudy (Night) 10 km
2025-04-04 23:59:24 26 91 0.0 24 240 6 1011 Partly Cloudy (Night) 10 km
2025-04-04 23:30:14 26 92 0.0 25 220 6 1011 Partly Cloudy (Night) 10 km
2025-04-04 23:01:44 26 92 0.0 25 180 6 1011 Partly Cloudy (Night) 10 km
2025-04-04 22:01:25 27 89 0.0 25 060 4 1011 Cloudy 10 km
2025-04-04 20:56:55 27 89 25 090 5.7 1010 Cloudy 10 KM
2025-04-04 20:00:23 27 91 25 080 13.3 1009 Night Thunderstorm 10 KM
2025-04-04 19:00:30 27 91 25 080 15.2 1009 Thunderstorm 9 KM
2025-04-04 18:01:30 29 79 25 040 15.2 1009 Thunderstorm 15 KM